FW6299 Weather Reports


time (UTC)temp
C
wind
direction
speed
KPH
gust
KPH
rain 1hr
cm
rain 24hr
cm
rain mn
cm
humidity
%
barometer
mb
20260906083033 21 132 0.0 0.0 0.00 0.00 0.00 93 1010.7
20260906081535 21 132 0.0 0.0 0.00 0.00 0.00 92 1010.5
20260906080019 21 132 0.0 3.2 0.00 0.00 0.00 93 1010.6
20260906074523 21 135 0.0 0.0 0.00 0.00 0.00 92 1010.4
20260906073031 21 135 0.0 0.0 0.00 0.00 0.00 91 1010.4
20260906071531 21 135 0.0 0.0 0.00 0.00 0.00 90 1010.3
20260906070031 22 135 0.0 0.0 0.00 0.00 0.00 89 1010.8
20260906064531 22 135 0.0 1.6 0.00 0.00 0.00 89 1011.1
20260906063033 22 135 0.0 0.0 0.00 0.00 0.00 88 1011.1
20260906061537 22 135 0.0 3.2 0.00 0.00 0.00 89 1011.2
20260906060037 22 131 0.0 0.0 0.00 0.00 0.00 88 1011.3
20260906054553 22 131 0.0 0.0 0.00 0.00 0.00 87 1011.4
20260906053039 22 131 0.0 4.8 0.00 0.00 0.00 87 1011.4
20260906051603 22 194 0.0 0.0 0.00 0.00 0.00 87 1011.4
20260906050049 22 220 0.0 0.0 0.00 0.00 0.00 87 1011.5
20260906044554 22 220 0.0 0.0 0.00 0.00 0.00 86 1011.7
20260906043057 22 220 0.0 0.0 0.00 0.00 0.00 86 1011.4
20260906041557 23 220 0.0 0.0 0.00 0.00 0.00 85 1011.4
20260906040134 23 220 0.0 0.0 0.00 0.00 0.00 84 1011.6
20260906034605 23 220 0.0 0.0 0.00 0.00 0.00 83 1011.8
20260906033012 23 220 0.0 0.0 0.00 0.00 0.00 82 1011.7
20260906031559 23 219 0.0 0.0 0.00 0.00 0.00 83 1011.8
20260906031510 23 219 0.0 0.0 0.00 0.00 0.00 83 1011.7
20260906030045 24 221 0.0 0.0 0.00 0.00 0.00 83 1011.6
20260906024552 24 221 0.0 0.0 0.00 0.00 0.00 82 1011.7
20260906023034 24 221 0.0 0.0 0.00 0.00 0.00 82 1011.7
20260906021536 23 221 0.0 0.0 0.00 0.00 0.00 82 1011.9
20260906020019 23 221 0.0 0.0 0.00 0.00 0.00 82 1011.7
20260906014519 24 221 0.0 0.0 0.00 0.00 0.00 82 1011.7
20260906013023 25 212 0.0 0.0 0.00 0.00 0.00 80 1011.4
20260906011527 25 211 0.0 0.0 0.00 0.00 0.00 78 1011.1
20260906010031 25 211 0.0 0.0 0.00 0.00 0.00 76 1010.9
20260906004515 26 210 0.0 0.0 0.00 0.00 0.00 75 1010.7
20260906003011 26 210 0.0 0.0 0.00 0.00 0.00 75 1010.8
20260906001608 26 213 0.0 0.0 0.00 0.00 0.00 75 1010.8
20260906001501 26 213 0.0 0.0 0.00 0.00 0.00 75 1010.8
20260906000057 27 213 0.0 1.6 0.00 0.00 0.00 73 1010.8
20260905234548 27 213 0.0 0.0 0.00 0.00 0.00 72 1010.7
20260905233059 27 213 0.0 3.2 0.00 0.00 0.00 73 1010.8
20260905231555 27 215 0.0 6.4 0.00 0.00 0.00 71 1010.7
20260905230043 27 121 0.0 3.2 0.00 0.00 0.00 72 1010.4
20260905224606 28 113 0.0 1.6 0.00 0.00 0.00 70 1010.7
20260905223025 29 113 0.0 4.8 0.00 0.00 0.00 68 1010.6
20260905221510 29 194 0.0 8.0 0.00 0.00 0.00 65 1010.5
20260905220015 30 207 4.8 8.0 0.00 0.00 0.00 64 1010.7
20260905214521 29 200 3.2 11.3 0.00 0.00 0.00 66 1010.8
20260905213021 29 203 4.8 16.1 0.00 0.00 0.00 66 1010.8
20260905211526 30 194 6.4 14.5 0.00 0.00 0.00 63 1011.0
20260905210018 31 175 4.8 9.7 0.00 0.00 0.00 60 1011.0
20260905204510 30 78 1.6 4.8 0.00 0.00 0.00 61 1011.1
20260905203011 30 86 0.0 4.8 0.00 0.00 0.00 62 1011.2
20260905201518 30 119 1.6 9.7 0.00 0.00 0.00 62 1011.2
20260905200103 30 61 0.0 4.8 0.00 0.00 0.00 62 1011.5
20260905200000 30 63 0.0 4.8 0.00 0.00 0.00 63 1011.5
20260905194552 29 72 1.6 8.0 0.00 0.00 0.00 62 1011.7
20260905193038 29 95 0.0 12.9 0.00 0.00 0.00 64 1011.9
20260905191536 29 172 4.8 14.5 0.00 0.00 0.00 64 1012.0
20260905190039 29 95 3.2 11.3 0.00 0.00 0.00 64 1012.3
20260905184552 28 96 1.6 12.9 0.00 0.00 0.00 65 1012.3
20260905183031 28 88 6.4 14.5 0.00 0.00 0.00 65 1012.6
20260905181526 28 83 1.6 11.3 0.00 0.00 0.00 68 1013.0
20260905180037 28 95 6.4 14.5 0.00 0.00 0.00 65 1013.3
20260905174526 27 107 6.4 14.5 0.00 0.00 0.00 71 1013.5
20260905173030 26 102 4.8 12.9 0.00 0.00 0.00 74 1013.7
20260905171530 27 96 8.0 17.7 0.00 0.00 0.00 69 1014.1
20260905170043 27 74 4.8 17.7 0.00 0.00 0.00 70 1014.2
20260905164538 27 34 4.8 17.7 0.00 0.00 0.00 74 1013.8
20260905163046 27 17 4.8 14.5 0.00 0.00 0.00 75 1013.5
20260905161601 27 47 3.2 16.1 0.00 0.00 0.00 74 1013.5
20260905160048 29 355 1.6 6.4 0.00 0.00 0.00 73 1014.0
20260905154604 30 321 0.0 6.4 0.00 0.00 0.00 71 1013.7
20260905153044 30 250 0.0 8.0 0.00 0.00 0.00 71 1013.5
20260905151542 30 234 0.0 4.8 0.00 0.00 0.00 72 1013.2
20260905150040 28 219 0.0 6.4 0.00 0.00 0.00 75 1013.3
20260905144536 28 218 0.0 3.2 0.00 0.00 0.00 77 1013.3
20260905143034 27 217 0.0 6.4 0.00 0.00 0.00 79 1013.6
20260905141536 27 204 0.0 0.0 0.00 0.00 0.00 79 1013.6
20260905140026 26 203 0.0 0.0 0.00 0.00 0.00 80 1013.5
20260905134524 26 210 0.0 0.0 0.00 0.00 0.00 81 1013.5
20260905133022 25 211 0.0 0.0 0.00 0.00 0.00 83 1013.6
20260905131515 25 101 0.0 0.0 0.00 0.00 0.00 84 1013.9
20260905130017 25 84 0.0 0.0 0.00 0.00 0.00 84 1014.0
20260905124518 24 108 0.0 0.0 0.00 0.00 0.00 86 1014.0
20260905123016 23 102 0.0 3.2 0.00 0.00 0.00 88 1014.2
20260905121515 22 125 0.0 0.0 0.00 0.00 0.00 90 1013.9
20260905120019 22 105 0.0 0.0 0.00 0.00 0.00 92 1013.7
20260905114519 21 114 0.0 0.0 0.00 0.00 0.00 93 1013.4
20260905113015 21 114 0.0 0.0 0.00 0.00 0.00 93 1013.3
20260905111507 21 114 0.0 0.0 0.00 0.00 0.00 93 1013.1
20260905110007 21 111 0.0 0.0 0.00 0.00 0.00 93 1013.0
20260905104507 21 107 0.0 0.0 0.00 0.00 0.00 94 1012.6
20260905103013 21 107 0.0 0.0 0.00 0.00 0.00 93 1012.6
20260905101512 21 107 0.0 0.0 0.00 0.00 0.00 92 1012.5
20260905100031 21 107 0.0 0.0 0.00 0.00 0.00 92 1012.6
20260905094520 21 107 0.0 0.0 0.00 0.00 0.00 91 1012.4
20260905093025 21 107 0.0 0.0 0.00 0.00 0.00 91 1012.3
20260905091529 21 107 0.0 0.0 0.00 0.00 0.00 90 1012.2
20260905090033 22 107 0.0 0.0 0.00 0.00 0.00 90 1012.3
20260905084559 22 107 0.0 0.0 0.00 0.00 0.00 89 1012.5
20260905084504 22 107 0.0 0.0 0.00 0.00 0.00 89 1012.5